Location: Balmoral
(33.0667°S, 151.5833°E)
Time: 01:21:47
(UTC+00:00)

USA 215 - Pass Details

Date: 18 September 2020
Orbit: 1102 x 1106 km, 123.0° (Epoch: 09 October)

Event Time Altitude Azimuth Distance (km) Brightness Sun altitude
Rises 17:16:09 0° 62° (ENE) 3,922 6.7 -31.9°
Reaches altitude 10° 17:18:41 10° 66° (ENE) 2,969 6.0 -31.4°
Maximum altitude 17:24:58 50° 139° (SE) 1,386 4.0 -30.2°
Drops below altitude 10° 17:31:18 10° 212° (SSW) 2,988 5.4 -28.9°
Enters shadow 17:31:19 10° 212° (SSW) 2,996 5.4 -28.9°
